Погода в Светлограде

Погода в Светлограде : погода сейчас, прогноз погоды и архив. Всё, что Вы хотите узнать о погоде в Светлограде!

Хотите узнать прогноз погоды в Светлограде? Тогда Вам сюда: Погода в Светлограде

Поиск расширенной информации на нашем сайте:

Другие новости

Новости СМИ2

Главная страница сайта

Новости сайта

03.07.2017

Напоминаем, что на нашем специализированном сайте Метеоцентр.Азия вы можете получить высокодетализированные автоматические прогнозы погоды по пунктам России, СНГ и мира в авиационном формате (включающие направление и скорость ветра, видимость, явления погоды, количество и форму облачности, нижнюю и верхнюю границу облачности).


Погода в Светлограде - сегодня

Время (UTC), дата Ветер
(°,м/с) 
Видим.   Явления Облачность Т
(°С)
Тd
(°С)
f(%) Тe
(°С)
Pmin
(гПа)
dP
(гПа)
Po
(мм)
O2
(г/м3)
Тmin Tmax R s Состояние
почвы
06 19.10.18 120 (ЮВ) 4-10{10}  20000 м    10/10 600 м 
[Sc]
+14.4 +11.7 84 +17  1021.5  0.7  753  286           
09 19.10.18 100 (В) 4{10}  20000 м    3/3 600 м 
[Sc]
+18.7 +10 57 +20  1020.1  -1.1  753  282           
12 19.10.18 110 (В) 4{10}  20000 м    ясно 
+19.7 +9.5 52 +20  1019.2  -0.8  752  281           
15 19.10.18 100 (В) 20000 м    ясно 
+15.4 +9.8 69 +18  1019  -0.5  752  285    +20       
18 19.10.18 090 (В) 20000 м    1/1 600 м 
[Sc]
+15 +10.8 76 +18  1018.6  -0.4  751  285           
21 19.10.18 130 (ЮВ) 20000 м    ясно 
+13.5 +12.1 91 +19  1017.4  -1.3  750  286           
00 20.10.18 тихо ()   20000 м    ясно 
+9.1 +8.4 95 +9  1017.3  -0.4  750  291           
03 20.10.18 тихо ()   10 км    ясно 
+6.5 +6.2 98 +7  1017.8  0.3  750  294  +6.5        сухая 
06 20.10.18 290 (З) 10 км    ясно 
+12 +9.5 85 +14  1017.8  0.4  751  288  +6         
09 20.10.18 250 (З) 20000 м    3/0 верхняя 
[Ci fib]
+21 +8.9 46 +21  1016.4  -0.9  750  279           
12 20.10.18 340 (С) 20000 м    10/0 верхняя 
[Cc]
+22.2 +8.3 41 +22  1015.6  -0.6  749  278           
15 20.10.18 160 (Ю) 10 км    10/8 600 м верхняя 
[Sc|Ci fib]
+15.9 +9.6 66 +18  1016.6  -0.6  750  284    +23.6       
18 20.10.18 тихо ()   10 км    10/8 600 м верхняя 
[Sc|Ci fib]
+12.1 +9.2 82 +12  1016.5  -0.3  750  288           
21 20.10.18 тихо ()   10 км    10/9 600 м верхняя 
[Sc|Ci fib]
+12.2 +9.1 81 +12  1016.2  -0.4  749  287           
00 21.10.18 тихо ()   10 км    10/10 600 м 
[Sc]
+11.6 +8.7 82 +12  1015.8  -0.4  749  288           
03 21.10.18 тихо ()   20000 м    10/6 600 м верхняя 
[Sc|Ci fib]
+9.8 +8.7 93 +10  1016.2  0.2  749  290  +9.8         
06 21.10.18 тихо ()   20000 м    8/0 верхняя 
[Ci fib]
+15 +8.8 66 +15  1016.7  0.9  750  285  +9.1         
09 21.10.18 110 (В) 20000 м    4/0 верхняя 
[Ci fib]
+23.4 +9.5 41 +24  1015.3  -0.9  749  276           
12 21.10.18 050 (СВ) 20000 м    4/0 верхняя 
[Ci fib]
+23.5 +9.7 42 +24  1014.8  -0.5  749  276           
15 21.10.18 090 (В) 20000 м    8/5 600 м верхняя 
[Sc|Ci sp]
+20 +9.8 52 +21  1016  750  280    +24.2       
18 21.10.18 тихо ()   20000 м    8/8 600 м 
[Sc]
+14.7 +9.9 73 +16  1016.5  750  285           
21 21.10.18 100 (В) 20000 м    8/8 1000 м 
[Sc]
+15.7 +10.2 70 +17  1016.4  750  284           
00 22.10.18 тихо ()   20000 м    10/10 1000 м 
[Sc]
+14 +10.5 79 +16  1016.1  -0.4  749  285           
03 22.10.18 100 (В) 10 км    10/10 600 м 
[Sc]
+12.7 +11.7 94 +17  1016.7  0.5  750  286  +12.1         
06 22.10.18 090 (В) 10 км    10/10 600 м 
[Sc]
+14.8 +11.2 79 +18  1017.3  0.7  750  285           
Время (UTC), дата Ветер
(°,м/с) 
Видим.   Явления Облачность Т
(°С)
Тd
(°С)
f(%) Тe
(°С)
Pmin
(гПа)
dP
(гПа)
Po
(мм)
O2
(г/м3)
Тmin Tmax R s Состояние
почвы

Для получения пояснительной информации подведите курсор к названию столбца.

ПОГОДА в Светлограде - архив

Всё, что Вы хотите узнать о погоде в Светлограде - удобно и подробно!

Выберите нужную дату (начиная с 1 января 2015* года) и нажмите кнопку "Найти".
Будут отображены архивные сводки погоды по пункту Светлоград, начиная с указанной даты.


Отображать данные в формате CSV (для использования в таблицах Excel)


Внимание! Наш архив погоды предназначен исключительно для личного некоммерческого использования в познавательных целях. Если Вам необходимы официальные справки о состоянии погоды (для производственных, юридических, коммерческих и т.п. целей), обращайтесь в органы Росгидромета.

*Примечание: данная дата относится к архиву по метеостанциям СССР (Россия, СНГ, Балтия).
Архив по метеостанциям Зарубежной Европы и Азии (кроме Китая) хранится 10 дней, по другим регионам земного шара (Китай, Африка, Америка, Австралия, Океания) - 1 день.

Светлоград - район местоположения метеостанции


Название, широта, долгота, высота метеостанции:
Светлоград 45.3°ш. 42.9°д. 140 м над ур. моря [Российская Федерация]

Дополнительная информация

В oтличие oт бoльшинства пoгoдных сайтoв мы публикуем пoдрoбную метеoинфoрмацию в детальнoм прoфессиoнальнoм фoрмате.

Характеристики температуры и влажнoсти вoздуха измеряются на высoте 2 м в тени вдали oт зданий и деревьев.
Скoрoсть ветра измеряется на высoте 10 м (на урoвне рoста челoвека скoрoсть ветра ниже в 1.5-2 раза). Если метеoстанция нахoдится в гoрoде или в лесу, тo скoрoсть ветра занижена на 2-4 м/с пo сравнению с oткрытым местoм. Скoрoсть ветра над акватoриями крупных рек и oзёр, а также на вершинах хoлмoв на 2-5 м/с выше, чем в oбычных услoвиях.
Атмoсфернoе давление в разных тoчках местнoсти мoжет значительнo oтличаться oт давления на метеoстанции, в зависимoсти oт услoвий рельефа (при пoдъёме на 10 м давление пoнижается примернo на 1 мм рт.ст.).